When you browse on this site, cookies collect data to enhance your experience and personalize the content and advertising you see.
Visit our Privacy Policy to learn more. By continuing to use the site, you agree to this use of cookies and data.
  • In Romania
  • List of Countries
  • For 7 days
  • Water Temperature
  • Satellite Maps
  • Weather Map
  • Weather Widgets
  • user-avatar
    Login

    Hourly Weather Mingachevir

    Today, 21 April, Sunday

    Time Temperature Precipitation Wind Pressure Humidity
    00:00 +5°C° 0 mm 3 mps 756 mmHg 77%
    01:00 +5°C° 0 mm 3 mps 756 mmHg 78%
    02:00 +4°C° 0 mm 3 mps 756 mmHg 78%
    03:00 +4°C° 0 mm 3 mps 756 mmHg 79%
    04:00 +4°C° 0 mm 3 mps 756 mmHg 79%
    05:00 +4°C° 0 mm 3 mps 756 mmHg 79%
    06:00 +5°C° 0 mm 2 mps 756 mmHg 80%
    07:00 +5°C° 0 mm 3 mps 756 mmHg 74%
    08:00 +7°C° 0 mm 4 mps 756 mmHg 68%
    09:00 +8°C° 0 mm 4 mps 756 mmHg 62%
    10:00 +9°C° 0 mm 5 mps 755 mmHg 60%
    11:00 +10°C° 0 mm 5 mps 755 mmHg 58%
    12:00 +12°C° 0 mm 5 mps 755 mmHg 56%
    13:00 +12°C° 0 mm 5 mps 755 mmHg 55%
    14:00 +13°C° 0 mm 5 mps 754 mmHg 55%
    15:00 +13°C° 0 mm 6 mps 754 mmHg 54%
    16:00 +12°C° 0 mm 5 mps 754 mmHg 56%
    17:00 +12°C° 0 mm 5 mps 754 mmHg 58%
    18:00 +10°C° 0 mm 5 mps 755 mmHg 61%
    19:00 +9°C° 0 mm 5 mps 755 mmHg 64%
    20:00 +9°C° 0 mm 5 mps 756 mmHg 68%
    21:00 +8°C° 0 mm 5 mps 756 mmHg 72%
    22:00 +7°C° 0 mm 5 mps 756 mmHg 75%
    23:00 +7°C° 0 mm 4 mps 756 mmHg 77%

    Tomorrow, 22 April, Monday

    Time Temperature Precipitation Wind Pressure Humidity
    00:00 +6°C° 0 mm 4 mps 756 mmHg 80%
    01:00 +6°C° 0 mm 4 mps 756 mmHg 81%
    02:00 +7°C° 0 mm 3 mps 756 mmHg 81%
    03:00 +7°C° 0 mm 3 mps 756 mmHg 82%
    04:00 +7°C° 0 mm 3 mps 756 mmHg 82%
    05:00 +7°C° 0 mm 3 mps 756 mmHg 82%
    06:00 +7°C° 0 mm 3 mps 756 mmHg 82%
    07:00 +8°C° 0 mm 3 mps 756 mmHg 75%
    08:00 +9°C° 0 mm 3 mps 756 mmHg 68%
    09:00 +10°C° 0 mm 4 mps 755 mmHg 61%
    10:00 +11°C° 0 mm 4 mps 755 mmHg 58%
    11:00 +12°C° 0 mm 4 mps 755 mmHg 54%
    12:00 +13°C° 0 mm 5 mps 754 mmHg 50%
    13:00 +13°C° 0 mm 5 mps 754 mmHg 50%
    14:00 +13°C° 0 mm 5 mps 754 mmHg 50%
    15:00 +13°C° 0 mm 5 mps 754 mmHg 50%
    16:00 +11°C° 0.1 mm 6 mps 754 mmHg 56%
    17:00 +10°C° 0.1 mm 6 mps 754 mmHg 61%
    18:00 +9°C° 0.1 mm 6 mps 755 mmHg 67%
    19:00 +9°C° 0.4 mm 6 mps 755 mmHg 71%
    20:00 +8°C° 0.4 mm 6 mps 756 mmHg 74%
    21:00 +8°C° 0.4 mm 5 mps 757 mmHg 78%
    22:00 +7°C° 0.3 mm 5 mps 757 mmHg 77%
    23:00 +7°C° 0.3 mm 4 mps 757 mmHg 77%

    Day after tomorrow, 23 April, Tuesday

    Time Temperature Precipitation Wind Pressure Humidity
    00:00 +7°C° 0.3 mm 4 mps 757 mmHg 76%
    01:00 +8°C° 0.3 mm 3 mps 757 mmHg 77%
    02:00 +8°C° 0.3 mm 3 mps 758 mmHg 77%
    03:00 +8°C° 0.3 mm 2 mps 758 mmHg 78%
    04:00 +8°C° 0.1 mm 2 mps 758 mmHg 78%
    05:00 +8°C° 0.1 mm 1 mps 758 mmHg 79%
    06:00 +8°C° 0.1 mm 1 mps 758 mmHg 79%
    07:00 +10°C° 0 mm 1 mps 758 mmHg 73%
    08:00 +10°C° 0 mm 2 mps 758 mmHg 66%
    09:00 +12°C° 0 mm 2 mps 759 mmHg 59%
    10:00 +12°C° 0 mm 3 mps 758 mmHg 56%
    11:00 +13°C° 0 mm 3 mps 758 mmHg 53%
    12:00 +14°C° 0 mm 4 mps 758 mmHg 50%
    13:00 +15°C° 0 mm 4 mps 758 mmHg 49%
    14:00 +15°C° 0 mm 4 mps 758 mmHg 48%
    15:00 +15°C° 0 mm 5 mps 758 mmHg 47%
    16:00 +15°C° 0 mm 5 mps 758 mmHg 49%
    17:00 +14°C° 0 mm 4 mps 758 mmHg 52%
    18:00 +14°C° 0 mm 4 mps 758 mmHg 55%
    19:00 +12°C° 0 mm 4 mps 759 mmHg 58%
    20:00 +11°C° 0 mm 4 mps 759 mmHg 62%
    21:00 +10°C° 0 mm 4 mps 760 mmHg 65%
    22:00 +10°C° 0 mm 3 mps 760 mmHg 67%
    23:00 +9°C° 0 mm 2 mps 760 mmHg 69%

    24 April, Wednesday

    Time Temperature Precipitation Wind Pressure Humidity
    00:00 +8°C° 0 mm 2 mps 760 mmHg 71%
    01:00 +8°C° 0 mm 2 mps 760 mmHg 72%
    02:00 +9°C° 0 mm 1 mps 760 mmHg 73%
    03:00 +9°C° 0 mm 1 mps 760 mmHg 74%
    04:00 +9°C° 0 mm 1 mps 761 mmHg 74%
    05:00 +9°C° 0 mm 1 mps 761 mmHg 74%
    06:00 +9°C° 0 mm 1 mps 761 mmHg 74%
    07:00 +10°C° 0.1 mm 1 mps 761 mmHg 69%
    08:00 +11°C° 0.1 mm 1 mps 761 mmHg 65%
    09:00 +11°C° 0.1 mm 1 mps 761 mmHg 60%
    10:00 +12°C° 0.1 mm 1 mps 761 mmHg 55%
    11:00 +13°C° 0.1 mm 1 mps 761 mmHg 50%
    12:00 +14°C° 0.1 mm 1 mps 760 mmHg 45%
    13:00 +15°C° 0 mm 2 mps 760 mmHg 43%
    14:00 +15°C° 0 mm 2 mps 759 mmHg 42%
    15:00 +16°C° 0 mm 2 mps 759 mmHg 40%
    16:00 +16°C° 0 mm 2 mps 759 mmHg 43%
    17:00 +15°C° 0 mm 2 mps 759 mmHg 45%
    18:00 +15°C° 0 mm 2 mps 759 mmHg 48%
    19:00 +13°C° 0 mm 3 mps 760 mmHg 51%
    20:00 +12°C° 0 mm 3 mps 760 mmHg 54%
    21:00 +12°C° 0 mm 4 mps 761 mmHg 58%
    22:00 +11°C° 0 mm 3 mps 761 mmHg 60%
    23:00 +10°C° 0 mm 3 mps 761 mmHg 63%

    25 April, Thursday

    Time Temperature Precipitation Wind Pressure Humidity
    00:00 +9°C° 0 mm 2 mps 761 mmHg 66%
    01:00 +9°C° 0 mm 2 mps 761 mmHg 67%
    02:00 +9°C° 0 mm 1 mps 761 mmHg 69%
    03:00 +8°C° 0 mm 0 mps 761 mmHg 70%
    04:00 +9°C° 0 mm 1 mps 761 mmHg 70%
    05:00 +9°C° 0 mm 1 mps 761 mmHg 70%
    06:00 +9°C° 0 mm 1 mps 761 mmHg 70%
    07:00 +11°C° 0 mm 1 mps 761 mmHg 62%
    08:00 +12°C° 0 mm 1 mps 761 mmHg 54%
    09:00 +14°C° 0 mm 2 mps 761 mmHg 46%
    10:00 +15°C° 0 mm 1 mps 761 mmHg 43%
    11:00 +16°C° 0 mm 1 mps 760 mmHg 40%
    12:00 +18°C° 0 mm 1 mps 760 mmHg 38%
    13:00 +18°C° 0 mm 1 mps 760 mmHg 36%
    14:00 +19°C° 0 mm 1 mps 759 mmHg 35%
    15:00 +20°C° 0 mm 1 mps 759 mmHg 34%
    16:00 +19°C° 0 mm 1 mps 759 mmHg 37%
    17:00 +18°C° 0 mm 2 mps 759 mmHg 39%
    18:00 +17°C° 0 mm 2 mps 759 mmHg 42%
    19:00 +16°C° 0 mm 2 mps 760 mmHg 45%
    20:00 +15°C° 0 mm 2 mps 760 mmHg 47%
    21:00 +14°C° 0 mm 2 mps 761 mmHg 50%
    22:00 +13°C° 0 mm 2 mps 761 mmHg 53%
    23:00 +12°C° 0 mm 2 mps 761 mmHg 56%

    26 April, Friday

    Time Temperature Precipitation Wind Pressure Humidity
    00:00 +10°C° 0 mm 2 mps 761 mmHg 59%
    01:00 +10°C° 0 mm 2 mps 761 mmHg 60%
    02:00 +10°C° 0 mm 1 mps 761 mmHg 61%
    03:00 +10°C° 0 mm 1 mps 761 mmHg 62%
    04:00 +10°C° 0 mm 1 mps 761 mmHg 61%
    05:00 +10°C° 0 mm 1 mps 761 mmHg 61%
    06:00 +11°C° 0 mm 1 mps 761 mmHg 61%
    07:00 +12°C° 0 mm 1 mps 761 mmHg 54%
    08:00 +14°C° 0 mm 1 mps 761 mmHg 48%
    09:00 +14°C° 0 mm 0 mps 761 mmHg 42%
    10:00 +16°C° 0 mm 1 mps 760 mmHg 38%
    11:00 +17°C° 0 mm 2 mps 760 mmHg 34%
    12:00 +19°C° 0 mm 3 mps 759 mmHg 30%
    13:00 +19°C° 0 mm 3 mps 759 mmHg 30%
    14:00 +20°C° 0 mm 3 mps 759 mmHg 30%
    15:00 +20°C° 0 mm 4 mps 758 mmHg 29%
    16:00 +19°C° 0 mm 3 mps 758 mmHg 34%
    17:00 +19°C° 0 mm 3 mps 758 mmHg 38%
    18:00 +18°C° 0 mm 3 mps 758 mmHg 43%
    19:00 +17°C° 0 mm 3 mps 758 mmHg 46%
    20:00 +14°C° 0 mm 3 mps 759 mmHg 50%
    21:00 +13°C° 0 mm 3 mps 759 mmHg 54%
    22:00 +12°C° 0 mm 3 mps 759 mmHg 56%
    23:00 +11°C° 0 mm 3 mps 759 mmHg 58%
    Show more